GW4057 Weather Reports


time (UTC)temp
C
wind
direction
speed
KPH
gust
KPH
rain 1hr
cm
rain 24hr
cm
rain mn
cm
humidity
%
barometer
mb
20260508054704 8 271 4.8 8.0 0.00 0.00 0.00 71 1012.9
20260508054204 8 201 3.2 8.0 0.00 0.00 0.00 72 1012.9
20260508053703 8 251 3.2 4.8 0.00 0.00 0.00 72 1013.2
20260508052704 8 257 3.2 4.8 0.00 0.00 0.00 71 1013.2
20260508052204 8 235 3.2 8.0 0.00 0.00 0.00 71 1013.2
20260508051204 8 216 3.2 11.3 0.00 0.00 0.00 71 1013.2
20260508050704 8 258 4.8 11.3 0.00 0.00 0.00 71 1013.2
20260508050204 8 179 3.2 11.3 0.00 0.00 0.00 71 1013.2
20260508045704 8 257 4.8 4.8 0.00 0.00 0.00 71 1013.2
20260508045203 8 246 1.6 8.0 0.00 0.00 0.00 71 1013.2
20260508044703 8 241 4.8 8.0 0.00 0.00 0.00 71 1013.2
20260508044203 7 229 4.8 8.0 0.00 0.00 0.00 70 1013.2
20260508043704 7 234 3.2 4.8 0.00 0.00 0.00 70 1013.2
20260508042204 8 272 3.2 8.0 0.00 0.00 0.00 68 1013.2
20260508041704 8 237 4.8 9.7 0.00 0.00 0.00 67 1013.2
20260508040703 8 215 3.2 12.9 0.00 0.00 0.00 66 1013.2
20260508040204 7 235 6.4 12.9 0.00 0.00 0.00 67 1013.2
20260508035704 7 233 11.3 12.9 0.00 0.00 0.00 68 1013.2
20260508035204 6 245 8.0 9.7 0.00 0.00 0.00 71 1013.2
20260508034704 5 163 3.2 9.7 0.00 0.00 0.00 76 1013.2
20260508034204 5 232 6.4 9.7 0.00 0.00 0.00 78 1013.2
20260508033704 5 125 0.0 0.0 0.00 0.00 0.00 79 1013.2
20260508033204 5 125 0.0 0.0 0.00 0.00 0.00 79 1013.2
20260508032704 5 125 0.0 0.0 0.00 0.00 0.00 78 1013.2
20260508032204 5 109 0.0 0.0 0.00 0.00 0.00 78 1013.2
20260508031704 5 126 0.0 0.0 0.00 0.00 0.00 77 1013.2
20260508030704 5 142 0.0 0.0 0.00 0.00 0.00 76 1013.2
20260508025704 5 115 0.0 0.0 0.00 0.00 0.00 75 1013.2
20260508025204 5 123 0.0 0.0 0.00 0.00 0.00 74 1013.2
20260508024704 5 126 0.0 0.0 0.00 0.00 0.00 73 1013.2
20260508024204 5 125 0.0 0.0 0.00 0.00 0.00 73 1013.2
20260508023704 5 115 0.0 0.0 0.00 0.00 0.00 72 1013.2
20260508023204 6 114 0.0 0.0 0.00 0.00 0.00 72 1013.2
20260508022704 6 115 0.0 0.0 0.00 0.00 0.00 72 1013.2
20260508022204 6 115 0.0 0.0 0.00 0.00 0.00 72 1013.2
20260508021204 6 124 0.0 0.0 0.00 0.00 0.00 69 1013.2
20260508020704 6 116 0.0 0.0 0.00 0.00 0.00 69 1013.2
20260508020206 6 116 0.0 0.0 0.00 0.00 0.00 68 1013.2
20260508015704 7 115 0.0 0.0 0.00 0.00 0.00 67 1013.2
20260508015204 7 130 0.0 0.0 0.00 0.00 0.00 66 1013.2
20260508014704 7 126 0.0 0.0 0.00 0.00 0.00 65 1013.2
20260508014204 7 127 0.0 0.0 0.00 0.00 0.00 66 1013.2
20260508013704 7 126 0.0 0.0 0.00 0.00 0.00 64 1012.9
20260508013204 8 150 0.0 0.0 0.00 0.00 0.00 63 1013.2
20260508012704 8 147 0.0 0.0 0.00 0.00 0.00 63 1012.9
20260508012203 8 144 0.0 0.0 0.00 0.00 0.00 61 1012.9
20260508011704 8 146 0.0 0.0 0.00 0.00 0.00 59 1012.9
20260508011204 9 142 0.0 0.0 0.00 0.00 0.00 57 1012.9
20260508010704 9 141 0.0 3.2 0.00 0.00 0.00 57 1012.9
20260508010203 10 155 0.0 3.2 0.00 0.00 0.00 55 1012.9
20260508005704 10 180 1.6 4.8 0.00 0.00 0.00 53 1012.9
20260508005204 10 190 0.0 4.8 0.00 0.00 0.00 52 1012.9
20260508004707 10 326 1.6 4.8 0.00 0.00 0.00 52 1012.9
20260508004203 10 238 3.2 4.8 0.00 0.00 0.00 51 1012.9
20260508003704 10 335 3.2 9.7 0.00 0.00 0.00 51 1012.9
20260508003204 10 199 4.8 9.7 0.00 0.00 0.00 50 1012.9
20260508002203 11 297 4.8 16.1 0.00 0.00 0.00 49 1012.6
20260508001704 11 273 3.2 16.1 0.00 0.00 0.00 49 1012.5
20260508001204 11 235 6.4 16.1 0.00 0.00 0.00 48 1012.5
20260508000704 11 285 9.7 14.5 0.00 0.00 0.00 48 1012.5
20260508000205 11 264 4.8 12.9 0.00 0.00 0.00 48 1012.5
20260507235704 11 340 8.0 14.5 0.00 0.00 0.00 47 1012.5
20260507234704 11 310 11.3 14.5 0.00 0.00 0.00 46 1012.5
20260507234203 11 333 6.4 14.5 0.00 0.00 0.00 47 1012.5
20260507233704 11 275 6.4 19.3 0.00 0.00 0.00 49 1012.5
20260507232704 11 308 14.5 24.1 0.00 0.00 0.00 46 1012.5
20260507232204 11 312 9.7 24.1 0.00 0.00 0.00 46 1012.2
20260507231704 12 260 14.5 24.1 0.00 0.00 0.00 45 1012.5
20260507231204 12 272 11.3 19.3 0.00 0.00 0.00 45 1012.5
20260507230204 12 290 9.7 20.9 0.00 0.00 0.00 45 1012.5
20260507225704 12 266 11.3 22.5 0.00 0.00 0.00 46 1012.5
20260507225204 12 299 14.5 22.5 0.00 0.00 0.00 45 1012.5
20260507224705 12 353 12.9 24.1 0.00 0.00 0.00 44 1012.5
20260507224204 12 329 9.7 24.1 0.00 0.00 0.00 44 1012.5
20260507223704 12 316 16.1 25.7 0.00 0.00 0.00 44 1012.5
20260507223204 12 286 17.7 25.7 0.00 0.00 0.00 44 1012.5
20260507222704 12 248 16.1 25.7 0.00 0.00 0.00 44 1012.5
20260507222204 12 281 11.3 24.1 0.00 0.00 0.00 45 1012.5
20260507221704 13 246 11.3 19.3 0.00 0.00 0.00 45 1012.5
20260507221204 12 263 14.5 27.4 0.00 0.00 0.00 45 1012.5
20260507220704 12 286 14.5 27.4 0.00 0.00 0.00 44 1012.5
20260507220204 12 297 12.9 27.4 0.00 0.00 0.00 44 1012.2
20260507215203 13 263 16.1 32.2 0.00 0.00 0.00 49 1012.2
20260507214204 13 331 9.7 22.5 0.00 0.00 0.00 53 1012.2
20260507213704 12 299 9.7 19.3 0.00 0.00 0.00 55 1012.2
20260507212704 12 292 9.7 12.9 0.00 0.00 0.00 55 1012.2
20260507212203 12 275 11.3 12.9 0.00 0.00 0.00 56 1012.2
20260507211704 12 320 6.4 19.3 0.00 0.00 0.00 57 1012.2
20260507210704 11 295 14.5 19.3 0.00 0.00 0.00 58 1011.9
20260507210203 12 335 11.3 19.3 0.00 0.00 0.00 57 1011.9
20260507205704 12 322 9.7 19.3 0.00 0.00 0.00 60 1011.9
20260507205204 11 319 8.0 16.1 0.00 0.00 0.00 60 1011.9
20260507204704 11 359 4.8 19.3 0.00 0.00 0.00 61 1012.2
20260507204204 11 340 6.4 19.3 0.00 0.00 0.00 61 1011.9
20260507203704 11 316 8.0 19.3 0.00 0.00 0.00 60 1011.9
20260507203204 11 350 4.8 22.5 0.00 0.00 0.00 59 1011.9
20260507202204 11 302 9.7 22.5 0.00 0.00 0.00 59 1011.9
20260507201704 11 296 8.0 14.5 0.00 0.00 0.00 58 1011.9
20260507201204 11 319 6.4 20.9 0.00 0.00 0.00 59 1011.9
20260507200704 11 299 9.7 20.9 0.00 0.00 0.00 58 1011.9
20260507200204 12 303 11.3 20.9 0.00 0.00 0.00 57 1011.9
20260507195704 12 319 8.0 14.5 0.00 0.00 0.00 57 1011.9
20260507195204 12 327 9.7 19.3 0.00 0.00 0.00 56 1011.9
20260507194204 12 353 11.3 19.3 0.00 0.00 0.00 55 1012.2
20260507193704 12 310 4.8 19.3 0.00 0.00 0.00 54 1011.9
20260507193204 13 316 8.0 16.1 0.00 0.00 0.00 54 1012.2
20260507192704 13 295 11.3 16.1 0.00 0.00 0.00 52 1012.2
20260507190704 13 300 8.0 14.5 0.00 0.00 0.00 53 1012.2
20260507190204 12 357 11.3 14.5 0.00 0.00 0.00 53 1012.2
20260507185704 13 341 11.3 16.1 0.00 0.00 0.00 52 1012.2
20260507185205 12 341 4.8 19.3 0.00 0.00 0.00 51 1012.2
20260507183704 13 319 20.9 27.4 0.00 0.00 0.00 50 1012.2
20260507183204 13 296 9.7 19.3 0.00 0.00 0.00 49 1012.2
20260507182704 12 301 8.0 16.1 0.00 0.00 0.00 52 1012.2
20260507182203 12 351 9.7 19.3 0.00 0.00 0.00 50 1012.2
20260507181704 12 291 4.8 22.5 0.00 0.00 0.00 49 1012.2
20260507181204 13 351 12.9 22.5 0.00 0.00 0.00 50 1012.2
20260507180704 13 291 16.1 22.5 0.00 0.00 0.00 49 1012.2
20260507175704 14 355 9.7 22.5 0.00 0.00 0.00 52 1012.2
20260507175204 13 31 9.7 19.3 0.00 0.00 0.00 51 1012.2
20260507174704 13 36 9.7 19.3 0.00 0.00 0.00 53 1012.5
20260507174204 13 312 9.7 19.3 0.00 0.00 0.00 53 1012.2
20260507173705 13 292 11.3 19.3 0.00 0.00 0.00 54 1012.2
20260507173204 13 355 11.3 19.3 0.00 0.00 0.00 54 1012.2
20260507171704 12 327 6.4 19.3 0.00 0.00 0.00 57 1012.5
20260507171204 12 296 9.7 19.3 0.00 0.00 0.00 57 1012.5
20260507170704 12 274 16.1 19.3 0.00 0.00 0.00 56 1012.5
20260507170204 13 322 4.8 12.9 0.00 0.00 0.00 59 1012.5
20260507165704 12 327 9.7 24.1 0.00 0.00 0.00 59 1012.5
20260507165204 12 311 9.7 24.1 0.00 0.00 0.00 58 1012.5
20260507164704 12 267 14.5 24.1 0.00 0.00 0.00 57 1012.2
20260507164204 13 293 9.7 16.1 0.00 0.00 0.00 56 1012.5
20260507163704 12 293 8.0 16.1 0.00 0.00 0.00 59 1012.5
20260507163204 12 308 16.1 16.1 0.00 0.00 0.00 57 1012.2
20260507162704 12 317 6.4 16.1 0.00 0.00 0.00 59 1012.2
20260507162204 13 281 12.9 19.3 0.00 0.00 0.00 56 1012.2
20260507161704 12 298 6.4 19.3 0.00 0.00 0.00 59 1012.2
20260507160704 13 331 8.0 14.5 0.00 0.00 0.00 56 1012.5
20260507160204 13 314 9.7 14.5 0.00 0.00 0.00 53 1012.2
20260507155704 12 318 11.3 14.5 0.00 0.00 0.00 52 1012.2
20260507155204 12 295 8.0 16.1 0.00 0.00 0.00 53 1012.2
20260507153703 13 323 9.7 19.3 0.00 0.00 0.00 51 1012.5
20260507153204 13 322 9.7 19.3 0.00 0.00 0.00 53 1012.5
20260507152204 12 17 4.8 14.5 0.00 0.00 0.00 54 1012.5
20260507151704 12 357 9.7 11.3 0.00 0.00 0.00 56 1012.5
20260507151204 12 288 3.2 12.9 0.00 0.00 0.00 54 1012.5
20260507150704 11 310 6.4 12.9 0.00 0.00 0.00 53 1012.5
20260507145704 11 0 4.8 11.3 0.00 0.00 0.00 58 1012.5
20260507145204 12 3 4.8 12.9 0.00 0.00 0.00 59 1012.5
20260507144204 12 134 3.2 12.9 0.00 0.00 0.00 56 1012.5
20260507143704 11 247 6.4 12.9 0.00 0.00 0.00 54 1012.5
20260507143204 11 226 8.0 12.9 0.00 0.00 0.00 53 1012.5
20260507142204 11 126 3.2 11.3 0.00 0.00 0.00 60 1012.9
20260507141704 11 18 1.6 11.3 0.00 0.00 0.00 61 1012.9
20260507141204 11 305 6.4 11.3 0.00 0.00 0.00 60 1012.9
20260507140704 11 323 3.2 11.3 0.00 0.00 0.00 66 1012.9
20260507140204 11 342 4.8 11.3 0.00 0.00 0.00 65 1012.9
20260507135704 11 241 6.4 11.3 0.00 0.00 0.00 68 1013.2
20260507134704 11 260 3.2 11.3 0.00 0.00 0.00 68 1013.2
20260507134203 10 208 9.7 11.3 0.00 0.00 0.00 69 1013.2
20260507133704 10 305 4.8 11.3 0.00 0.00 0.00 68 1013.2
20260507133204 10 266 4.8 9.7 0.00 0.00 0.00 69 1013.2
20260507132204 10 284 4.8 9.7 0.00 0.00 0.00 70 1013.2
20260507130703 9 221 4.8 9.7 0.00 0.00 0.00 72 1013.2
20260507130204 9 321 4.8 4.8 0.00 0.00 0.00 75 1013.2
20260507125704 9 187 3.2 8.0 0.00 0.00 0.00 76 1013.2
20260507124704 8 322 3.2 11.3 0.00 0.00 0.00 76 1013.5
20260507124204 8 300 3.2 11.3 0.00 0.00 0.00 76 1013.5
20260507123704 8 195 4.8 9.7 0.00 0.00 0.00 76 1013.2
20260507123204 8 320 8.0 9.7 0.00 0.00 0.00 78 1013.2
20260507122705 8 292 4.8 9.7 0.00 0.00 0.00 78 1013.2
20260507122204 8 310 4.8 9.7 0.00 0.00 0.00 78 1013.2
20260507121704 8 254 6.4 9.7 0.00 0.03 0.00 78 1013.2
20260507121204 7 274 3.2 8.0 0.00 0.03 0.00 80 1012.9
20260507120204 7 217 1.6 8.0 0.00 0.03 0.00 87 1012.9
20260507115705 6 221 0.0 8.0 0.00 0.03 0.00 89 1013.2
20260507115204 6 197 1.6 8.0 0.00 0.03 0.00 91 1013.2
20260507114704 6 132 0.0 3.2 0.00 0.03 0.00 93 1012.9
20260507114204 5 120 0.0 3.2 0.00 0.03 0.00 93 1013.2
20260507113704 5 108 0.0 3.2 0.00 0.03 0.00 93 1013.2
20260507113204 5 105 1.6 1.6 0.00 0.03 0.00 93 1013.2
20260507112704 5 142 0.0 0.0 0.00 0.03 0.00 92 1012.9
20260507112204 5 120 0.0 0.0 0.00 0.03 0.00 91 1012.9
20260507111704 5 102 0.0 0.0 0.00 0.03 0.00 91 1012.9
20260507111204 5 110 0.0 0.0 0.00 0.03 0.00 91 1012.9
20260507110704 5 108 0.0 0.0 0.00 0.03 0.00 91 1012.9
20260507110204 5 112 0.0 0.0 0.00 0.03 0.00 90 1012.9
20260507105704 5 104 0.0 0.0 0.00 0.03 0.00 90 1012.9
20260507105203 5 110 0.0 0.0 0.00 0.03 0.00 89 1012.9
20260507104704 5 109 0.0 0.0 0.00 0.03 0.00 89 1012.5
20260507104204 5 112 0.0 0.0 0.00 0.03 0.00 89 1012.5
20260507103704 5 112 0.0 0.0 0.00 0.03 0.00 88 1012.9
20260507103204 5 112 0.0 0.0 0.00 0.03 0.00 88 1012.5
20260507102704 5 124 0.0 1.6 0.00 0.03 0.00 88 1012.5
20260507102204 5 164 0.0 3.2 0.00 0.03 0.00 88 1012.5
20260507101704 5 113 0.0 3.2 0.00 0.03 0.00 88 1012.9
20260507101205 5 167 1.6 3.2 0.00 0.03 0.00 88 1012.9
20260507100704 5 169 0.0 0.0 0.00 0.03 0.00 87 1012.9
20260507095705 5 134 0.0 3.2 0.00 0.03 0.00 87 1012.5
20260507095204 6 216 0.0 4.8 0.00 0.05 0.00 87 1012.5
20260507094705 6 168 0.0 4.8 0.00 0.05 0.00 86 1012.5
20260507093705 6 146 0.0 8.0 0.00 0.08 0.00 86 1012.5
20260507092704 5 185 3.2 4.8 0.00 0.10 0.00 87 1012.5
20260507091704 5 199 0.0 8.0 0.00 0.13 0.00 89 1012.9
20260507091204 5 187 4.8 8.0 0.00 0.13 0.00 90 1012.5
20260507090704 5 191 3.2 8.0 0.00 0.13 0.00 92 1012.9
20260507090205 5 189 1.6 8.0 0.00 0.13 0.00 93 1012.9
20260507085704 5 114 0.0 0.0 0.00 0.15 0.00 96 1012.9
20260507085205 5 123 0.0 0.0 0.00 0.15 0.00 97 1012.9
20260507084705 5 155 0.0 0.0 0.00 0.15 0.00 98 1012.9
20260507084205 4 167 0.0 0.0 0.00 0.18 0.00 98 1012.9
20260507083704 4 157 0.0 0.0 0.00 0.18 0.00 98 1012.9
20260507083205 3 265 0.0 0.0 0.00 0.20 0.00 98 1012.9
20260507082705 3 160 0.0 0.0 0.00 0.23 0.00 98 1012.9
20260507082204 3 124 0.0 0.0 0.00 0.23 0.00 97 1012.9
20260507081704 3 123 0.0 0.0 0.00 0.25 0.00 97 1012.9
20260507081204 3 119 0.0 0.0 0.00 0.25 0.00 97 1012.9
20260507080704 3 48 0.0 0.0 0.00 0.28 0.00 97 1013.2
20260507075704 3 311 0.0 0.0 0.00 0.30 0.00 97 1012.9
20260507075205 3 110 0.0 0.0 0.00 0.30 0.00 96 1012.9
20260507074705 3 111 0.0 0.0 0.00 0.30 0.00 96 1012.9
20260507073704 3 102 0.0 0.0 0.00 0.33 0.00 96 1012.9
20260507073204 3 113 0.0 0.0 0.00 0.36 0.00 95 1012.9
20260507072704 3 112 0.0 0.0 0.00 0.36 0.00 95 1012.9
20260507072205 3 71 0.0 0.0 0.00 0.36 0.00 95 1013.2
20260507071704 3 70 0.0 0.0 0.00 0.36 0.00 95 1012.9
20260507071204 3 70 0.0 0.0 0.00 0.36 0.00 94 1012.9
20260507070704 3 110 0.0 0.0 0.00 0.38 0.00 94 1013.2
20260507065704 3 98 0.0 0.0 0.00 0.38 0.00 93 1013.2
20260507065204 3 97 0.0 0.0 0.00 0.38 0.00 93 1013.2
20260507064705 4 98 0.0 0.0 0.00 0.38 0.00 93 1013.2
20260507064204 4 98 0.0 0.0 0.00 0.38 0.00 92 1013.2
20260507063704 4 98 0.0 0.0 0.00 0.41 0.00 91 1013.2
20260507063204 4 98 0.0 0.0 0.00 0.41 0.00 91 1013.5
20260507062704 5 98 0.0 0.0 0.00 0.41 0.00 91 1013.5
20260507062204 5 86 0.0 0.0 0.00 0.43 0.00 90 1013.5
20260507061704 5 98 0.0 0.0 0.00 0.46 0.00 90 1013.5
20260507061204 5 110 0.0 0.0 0.00 0.48 0.00 89 1013.5
20260507060204 5 107 0.0 0.0 0.00 0.53 0.00 89 1013.5
20260507055704 5 113 0.0 0.0 0.00 0.53 0.00 89 1013.5
20260507055204 5 102 0.0 0.0 0.00 0.56 0.00 89 1013.5